Flag for Canada Weather past 2 weeks in Igloolik, Nunavut, Canada

Now
36 °F

Light rain. Fog.


Feels Like: 26 °F
Forecast: 42 / 47 °F
Wind: 15 mph from East

Location: Hall Beach

Current Time: Jul 8, 2015 at 1:28:42 AM

Latest Report: Jul 8, 2015 at 1:00 AM


Visibility: 1 mi

Pressure: 29.59 "Hg

Humidity: 100%

Dew point: 36 °F

Location of IgloolikLocation

Historic Weather in Igloolik — Graph

°F

Igloolik temperature yesterday

Maximum temperature yesterday: 39 °F (at 11:00 AM)
Minimum temperature yesterday: 34 °F (at 12:00 AM)
Average temperature yesterday: 37 °F

Past Weeks' High & Low Weather Summary

 TemperatureHumidityPressure
High50 °F (Jun 28, 6:00 PM)100% (Jun 23, 12:00 AM)30.08 "Hg (Jun 23, 12:00 AM)
Low30 °F (Jun 24, 4:00 AM)67% (Jun 28, 7:00 PM)29.54 "Hg (Jun 23, 1:00 PM)
Average36 °F95%29.82 "Hg
* Reported Midnight between Jun 22 and Jun 23 — Midnight between Jul 7 and Jul 8, Igloolik, Weather by CustomWeather, © 2015

Note: Actual official high and low records may vary slightly from our data, if they occured in-between our weather recording intervals... More about our weather records

Advertising

Igloolik weather history for previous 24 hours

 ConditionsComfort  
Time TempWeatherWind HumidityBarometerVisibility
12:00 AM
Wed, Jul 8
37 °FLow clouds.14 mph93%29.60 "Hg8 mi
11:00 PM
Tue, Jul 7
37 °FMostly cloudy.10 mph93%29.62 "Hg9 mi
10:02 PM37 °FLight rain. Fog.8 mph100%29.63 "Hg1 mi
9:03 PM37 °FLight rain. Fog.9 mph100%29.67 "Hg1 mi
8:00 PM37 °FDrizzle. Fog.12 mph100%29.69 "Hg1 mi
7:00 PM37 °FDrizzle. Fog.16 mph100%29.70 "Hg8 mi
6:46 PM37 °FDrizzle. Fog.14 mph100%29.71 "Hg1 mi
6:00 PM37 °FLight rain. Fog.14 mph100%29.71 "Hg3 mi
5:00 PM37 °FLight rain. Fog.14 mph93%29.73 "Hg2 mi
4:00 PM37 °FLight rain. Fog.14 mph93%29.74 "Hg4 mi
3:00 PM37 °FLight rain. Fog.17 mph93%29.75 "Hg10 mi
2:00 PM37 °FSprinkles. Overcast.16 mph93%29.76 "Hg15 mi
1:00 PM37 °FSprinkles. Partly sunny.14 mph93%29.79 "Hg15 mi
12:47 PM37 °FSprinkles. Partly sunny.15 mph93%29.80 "Hg15 mi
12:00 PM39 °FPartly sunny.14 mph87%29.81 "Hg15 mi
11:00 AM39 °FPartly sunny.13 mph93%29.83 "Hg15 mi
10:00 AM37 °FPartly sunny.13 mph93%29.83 "Hg15 mi
9:00 AM37 °FBroken clouds.10 mph93%29.85 "Hg15 mi
8:00 AM36 °FFog.12 mph100%29.86 "Hg1 mi
7:59 AM36 °FFog.12 mph100%29.86 "Hg1 mi
7:00 AM36 °FFog.9 mph100%29.88 "Hg1 mi
6:00 AM36 °FFog.8 mph93%29.89 "Hg0 mi
5:04 AM34 °FLight rain. Fog.7 mph100%29.89 "Hg0 mi
4:00 AM34 °FLight rain. Fog.8 mph100%29.90 "Hg0 mi
3:00 AM34 °FLight rain. Fog.6 mph100%29.90 "Hg0 mi
2:00 AM36 °FLight rain. Fog.5 mph93%29.90 "Hg0 mi
1:00 AM34 °FFog.5 mph100%29.91 "Hg0 mi
Weather by CustomWeather, © 2015

See weather overviewHow to use our weather pages